Daytona Beach, FL

8:59 AM EDT on July 21, 2017 (GMT -0400)
Daytona Beach International

Weather History for KDAB - January, 2013

Change the Weather History Date:

Wednesday, January 9, 2013

  Actual Average Record
Temperature  
Mean Temperature 71 °F 58 °F  
Max Temperature 78 °F 68 °F 84 °F (1974)
Min Temperature 64 °F 47 °F 25 °F (1958)
Degree Days  
Heating Degree Days 0 8  
Month to date heating degree days 72  
Since 1 July heating degree days 338  
Cooling Degree Days 6 1  
Month to date cooling degree days 9  
Year to date cooling degree days 9  
Growing Degree Days 21 (Base 50)    
Moisture  
Dew Point 67 °F    
Average Humidity 93    
Maximum Humidity 100    
Minimum Humidity 76    
Precipitation  
Precipitation 0.00 in 0.09 in 0.91 in (1953)
Month to date precipitation 0.78  
Year to date precipitation 0.78  
Sea Level Pressure  
Sea Level Pressure 30.27 in    
Wind  
Wind Speed 1 mph (East)    
Max Wind Speed 8 mph    
Max Gust Speed -    
Visibility 5 miles    
Events Fog    
T = Trace of Precipitation, MM = Missing Value Source: NWS Daily Summary

Daily Weather History Graph

Daily Weather History Graph

Search for Another Location

Airport or City:

Trip Planner

Search our weather history database for the weather conditions in past years. The results will help you decide how hot, cold, wet, or windy it might be!

Date:

Astronomy

Jan. 09, 2013 Rise Set
Actual Time 7:19 AM EST 5:43 PM EST
Civil Twilight 6:53 AM EST 6:09 PM EST
Nautical Twilight 6:24 AM EST 6:38 PM EST
Astronomical Twilight 5:55 AM EST 7:07 PM EST
Moon 4:56 AM EST (1/9) 3:44 PM EST (1/9)
Length of Visible Light 11h 15m
Length of Day
10h 24m
Waning Crescent, 6% of the Moon is Illuminated
Jan 9
Waning Crescent
Jan 11
New
Jan 18
First Quarter
Jan 26
Full
Feb 3
Last Quarter

Hourly Weather History & Observations

Time (EST) Temp. Dew Point Humidity Pressure Visibility Wind Dir Wind Speed Gust Speed Precip Events Conditions
12:20 AM 66.2 °F 66.2 °F 100% 30.24 in 9.0 mi Calm Calm - N/A   Mostly Cloudy
12:53 AM 69.1 °F 66.9 °F 93% 30.24 in 9.0 mi Calm Calm - N/A   Mostly Cloudy
1:05 AM 69.8 °F 68.0 °F 94% 30.23 in 9.0 mi Calm Calm - N/A   Mostly Cloudy
1:26 AM 68.0 °F 66.2 °F 94% 30.23 in 8.0 mi Calm Calm - N/A   Scattered Clouds
1:42 AM 66.2 °F 66.2 °F 100% 30.23 in 2.0 mi Calm Calm - N/A   Scattered Clouds
1:53 AM 66.9 °F 66.0 °F 97% 30.24 in 1.2 mi Calm Calm - N/A   Scattered Clouds
2:08 AM 66.2 °F 66.2 °F 100% 30.24 in 4.0 mi Calm Calm - N/A   Mostly Cloudy
2:46 AM 66.2 °F 66.2 °F 100% 30.24 in 6.0 mi Calm Calm - N/A   Scattered Clouds
2:53 AM 66.9 °F 66.0 °F 97% 30.24 in 2.0 mi Calm Calm - N/A   Partly Cloudy
3:06 AM 64.4 °F 64.4 °F 100% 30.24 in 1.0 mi Calm Calm - N/A   Partly Cloudy
3:26 AM 66.2 °F 64.4 °F 94% 30.24 in 0.8 mi Calm Calm - N/A   Partly Cloudy
3:53 AM 64.0 °F 64.0 °F 100% 30.24 in 0.8 mi Calm Calm - N/A   Partly Cloudy
4:10 AM 64.4 °F 64.4 °F 100% 30.24 in 1.2 mi Calm Calm - N/A   Partly Cloudy
4:24 AM 64.4 °F 64.4 °F 100% 30.23 in 2.0 mi Calm Calm - N/A   Scattered Clouds
4:46 AM 64.4 °F 64.4 °F 100% 30.23 in 1.8 mi Calm Calm - N/A   Partly Cloudy
4:53 AM 64.0 °F 64.0 °F 100% 30.23 in 1.2 mi Calm Calm - N/A   Partly Cloudy
5:07 AM 64.4 °F 64.4 °F 100% 30.23 in 0.8 mi ENE 3.5 mph - N/A   Partly Cloudy
5:53 AM 64.0 °F 63.0 °F 96% 30.25 in 0.5 mi Calm Calm - N/A Fog Fog
6:53 AM 64.9 °F 64.9 °F 100% 30.27 in 0.5 mi Calm Calm - N/A Fog Fog
7:12 AM 64.4 °F 64.4 °F 100% 30.27 in 0.8 mi Calm Calm - N/A   Mostly Cloudy
7:26 AM 64.4 °F 64.4 °F 100% 30.28 in 1.0 mi Calm Calm - N/A   Mostly Cloudy
7:38 AM 66.2 °F 66.2 °F 100% 30.28 in 2.0 mi Calm Calm - N/A   Mostly Cloudy
7:53 AM 66.0 °F 66.0 °F 100% 30.28 in 3.0 mi Calm Calm - N/A   Mostly Cloudy
8:53 AM 70.0 °F 69.1 °F 97% 30.30 in 5.0 mi ESE 3.5 mph - N/A   Mostly Cloudy
9:53 AM 73.9 °F 69.1 °F 85% 30.32 in 10.0 mi ESE 5.8 mph - N/A   Overcast
10:53 AM 75.0 °F 66.9 °F 76% 30.32 in 10.0 mi SE 6.9 mph - N/A   Overcast
11:53 AM 78.1 °F 70.0 °F 76% 30.31 in 10.0 mi Variable 5.8 mph - N/A   Mostly Cloudy
12:53 PM 77.0 °F 69.1 °F 76% 30.29 in 10.0 mi Variable 4.6 mph - N/A   Mostly Cloudy
1:53 PM 78.1 °F 70.0 °F 76% 30.27 in 10.0 mi Variable 4.6 mph - N/A   Mostly Cloudy
2:53 PM 77.0 °F 69.1 °F 76% 30.27 in 10.0 mi East 5.8 mph - N/A   Mostly Cloudy
3:53 PM 75.0 °F 69.1 °F 82% 30.28 in 9.0 mi East 8.1 mph - N/A   Mostly Cloudy
4:53 PM 75.0 °F 69.1 °F 82% 30.28 in 8.0 mi East 5.8 mph - N/A   Mostly Cloudy
5:53 PM 73.0 °F 69.1 °F 87% 30.29 in 9.0 mi East 5.8 mph - N/A   Mostly Cloudy
6:53 PM 71.1 °F 69.1 °F 93% 30.30 in 7.0 mi East 3.5 mph - N/A   Mostly Cloudy
7:53 PM 71.1 °F 69.1 °F 93% 30.32 in 8.0 mi East 3.5 mph - N/A   Scattered Clouds
8:53 PM 71.1 °F 69.1 °F 93% 30.32 in 9.0 mi East 5.8 mph - N/A   Scattered Clouds
9:53 PM 71.1 °F 69.1 °F 93% 30.33 in 9.0 mi East 3.5 mph - N/A   Scattered Clouds
10:53 PM 69.1 °F 68.0 °F 96% 30.34 in 8.0 mi Calm Calm - N/A   Scattered Clouds
11:53 PM 69.1 °F 68.0 °F 96% 30.34 in 7.0 mi East 3.5 mph - N/A   Scattered Clouds